TimeEST,TemperatureF,Dew PointF,Humidity,Sea Level PressureIn,VisibilityMPH,Wind Direction,Wind SpeedMPH,Gust SpeedMPH,PrecipitationIn,Events,Conditions,WindDirDegrees,DateUTC
12:13 AM,69.8,66.2,88,30.09,6.0,Calm,Calm,-,N/A,,Overcast,0,2013-11-07 05:13:00
12:53 AM,70.0,64.9,84,30.08,6.0,NE,5.8,-,N/A,,Haze,50,2013-11-07 05:53:00
1:04 AM,69.8,64.4,83,30.08,6.0,NE,8.1,-,N/A,,Overcast,50,2013-11-07 06:04:00
1:53 AM,69.1,64.9,87,30.06,5.0,ENE,4.6,-,N/A,,Overcast,70,2013-11-07 06:53:00
2:53 AM,69.1,64.9,87,30.05,6.0,ENE,5.8,-,N/A,,Overcast,70,2013-11-07 07:53:00
3:53 AM,69.1,64.9,87,30.04,6.0,Calm,Calm,-,N/A,,Overcast,0,2013-11-07 08:53:00
4:53 AM,69.1,64.9,87,30.04,6.0,Calm,Calm,-,N/A,,Overcast,0,2013-11-07 09:53:00
5:53 AM,69.1,64.9,87,30.04,6.0,Calm,Calm,-,N/A,,Overcast,0,2013-11-07 10:53:00
6:53 AM,68.0,64.9,90,30.05,5.0,Calm,Calm,-,N/A,,Overcast,0,2013-11-07 11:53:00
7:38 AM,68.0,64.4,88,30.07,4.0,Calm,Calm,-,N/A,,Overcast,0,2013-11-07 12:38:00
7:53 AM,68.0,64.9,90,30.07,4.0,Calm,Calm,-,N/A,,Overcast,0,2013-11-07 12:53:00
8:53 AM,69.1,64.9,87,30.07,5.0,Calm,Calm,-,N/A,,Overcast,0,2013-11-07 13:53:00
9:18 AM,71.6,64.4,78,30.08,6.0,Calm,Calm,-,N/A,,Haze,0,2013-11-07 14:18:00
9:53 AM,72.0,64.9,78,30.08,8.0,Calm,Calm,-,0.00,,Overcast,0,2013-11-07 14:53:00
10:18 AM,71.6,66.2,83,30.08,8.0,NNW,4.6,-,N/A,,Scattered Clouds,330,2013-11-07 15:18:00
10:53 AM,75.0,66.0,73,30.07,9.0,North,3.5,-,N/A,,Clear,350,2013-11-07 15:53:00
11:53 AM,80.1,64.9,60,30.04,10.0,Calm,Calm,-,N/A,,Clear,0,2013-11-07 16:53:00
12:53 PM,82.0,63.0,52,30.02,10.0,Variable,5.8,-,N/A,,Clear,0,2013-11-07 17:53:00
1:53 PM,84.0,60.1,44,29.99,10.0,North,6.9,-,N/A,,Clear,10,2013-11-07 18:53:00
2:53 PM,84.0,61.0,46,29.99,10.0,Variable,4.6,-,N/A,,Clear,0,2013-11-07 19:53:00
3:53 PM,82.9,61.0,47,29.99,10.0,NNW,5.8,-,N/A,,Clear,330,2013-11-07 20:53:00
4:53 PM,80.1,63.0,56,29.99,10.0,NW,5.8,-,N/A,,Clear,320,2013-11-07 21:53:00
5:53 PM,73.0,64.0,73,30.00,10.0,Calm,Calm,-,N/A,,Clear,0,2013-11-07 22:53:00
6:53 PM,73.9,63.0,68,30.01,10.0,NNW,3.5,-,N/A,,Clear,340,2013-11-07 23:53:00
7:53 PM,70.0,63.0,78,30.02,10.0,NW,4.6,-,N/A,,Clear,320,2013-11-08 00:53:00
8:53 PM,70.0,63.0,78,30.03,10.0,NNW,3.5,-,N/A,,Clear,330,2013-11-08 01:53:00
9:53 PM,70.0,63.0,78,30.04,10.0,NNW,4.6,-,N/A,,Clear,340,2013-11-08 02:53:00
10:53 PM,68.0,63.0,84,30.04,10.0,NW,3.5,-,N/A,,Clear,320,2013-11-08 03:53:00
11:53 PM,68.0,63.0,84,30.04,10.0,NNW,4.6,-,N/A,,Mostly Cloudy,330,2013-11-08 04:53:00